Location: SFA Observatory
(31.7598°N, 94.6613°W)
Time: 14:56:22
(UTC-06:00)

Tiangong 2 - Visible Passes

Search period start: 19 January 2018 00:00
Search period end: 29 January 2018 00:00
Orbit: 384 x 390 km, 42.8° (Epoch: 18 January)

Date Brightness Start Highest point End Pass type
(mag) Time Alt. Az. Time Alt. Az. Time Alt. Az.
19 Jan 2.5 06:20:34 20° NW 06:21:35 23° NNW 06:24:13 10° NE visible
20 Jan 3.7 05:24:55 16° NE 05:24:55 16° NE 05:25:44 10° NE visible
21 Jan 3.2 06:01:26 16° N 06:01:26 16° N 06:03:17 10° NNE visible
22 Jan 3.5 06:38:39 10° NNW 06:39:50 12° N 06:41:01 10° NNE visible
23 Jan 3.8 05:41:53 11° NNE 05:41:53 11° NNE 05:42:21 10° NNE visible
24 Jan 3.6 06:18:17 10° NNW 06:19:30 12° N 06:20:42 10° NNE visible
26 Jan 3.5 05:58:21 13° N 05:59:06 13° N 06:00:45 10° NE visible
27 Jan 2.9 06:34:55 10° NW 06:37:36 24° NNE 06:40:16 10° ENE visible
28 Jan 3.3 05:38:35 17° NNE 05:38:38 17° NNE 05:40:51 10° ENE visible
